Погода в Смоленске

Погода в Смоленске : погода сейчас, прогноз погоды и архив. Всё, что Вы хотите узнать о погоде в Смоленске!

Хотите узнать прогноз погоды в Смоленске? Тогда Вам сюда: Погода в Смоленске

Поиск расширенной информации на нашем сайте:

Полезная информация:

Другие новости

Новости СМИ2

Главная страница сайта

Новости сайта

03.07.2017

Напоминаем, что на нашем специализированном сайте Метеоцентр.Азия вы можете получить высокодетализированные автоматические прогнозы погоды по пунктам России, СНГ и мира в авиационном формате (включающие направление и скорость ветра, видимость, явления погоды, количество и форму облачности, нижнюю и верхнюю границу облачности).

Рекомендуем:

Погода в Смоленске - сегодня

Время (UTC), дата Ветер
(°,м/с) 
Видим.   Явления Облачность Т
(°С)
Тd
(°С)
f(%) Тe
(°С)
Pmin
(гПа)
dP
(гПа)
Po
(мм)
O2
(г/м3)
Тmin Tmax R s Состояние
почвы
00 22.05.19 тихо ()   10 км    1/0 верхняя 
[Ci fib]
+9.4 +6.9 84 +9  1013.4  -0.8  738  286           
03 22.05.19 080 (В) 10 км    3/0 средняя, верхняя 
[Ac lent|Ci fib]
+11.6 +7.2 74 +13  1012.5  -0.7  738  284  +8.7         
06 22.05.19 130 (ЮВ) 10 км    9/3 600 м средняя, верхняя 
[Sc|Ac trans|Ci fib]
+16.7 +10.3 66 +20  1011.4  -0.5  738  278  +8.7        сухая 
09 22.05.19 090 (В) 20000 м    9/0 верхняя 
[Ci sp]
+20.7 +10 50 +22  1010.4  -0.6  737  274           
12 22.05.19 180 (Ю) 20000 м    9/4 1000 м верхняя 
[Cu med, cong|Ci fib]
+23.3 +11.3 47 +27  1009  -1.1  736  271           
15 22.05.19 тихо ()   20000 м    9/3 1000 м верхняя 
[Cu med, cong|Ci fib]
+22.5 +12.2 52 +27  1008  -1.1  735  271           
18 22.05.19 тихо ()   20000 м    9/0 верхняя 
[Ci fib]
+16.1 +12.4 79 +21  1008.5  -0.1  735  277    +23.3       
21 22.05.19 210 (ЮЗ) 10 км    ясно 
+15.1 +11.8 81 +20  1008.5  -0.2  735  278           
00 23.05.19 310 (СЗ) 10 км    ясно 
+11.9 +10.9 94 +16  1007.8  -1  735  282           
03 23.05.19 200 (Ю) 10 км    9/0 верхняя 
[Ci fib]
+13.1 +12.3 95 +19  1007.6  735  280  +11.7         
06 23.05.19 280 (З) 10 км    4/0 средняя, верхняя 
[Ac trans|Ci fib]
+20.5 +13.7 65 +28  1006.8  -0.2  734  272  +11.7        сухая 
09 23.05.19 290 (З) 10 км    8/5 600 м верхняя 
[Cu med, cong|Ci fib]
+23.8 +11.7 47 +28  1006.4  734  270           
12 23.05.19 240 (ЮЗ) 20000 м    5/5 1500 м 
[Cu med, cong]
+24.8 +11.4 43 +28  1005.4  -0.9  734  269           
15 23.05.19 270 (З) 10 км  в посл. час гроза{ливн. осадки}  8/5 600 м кучево-дожд., средняя, верхняя 
[Cb cap|Ac trans|Ci fib]
+22.7 +11.7 50 +27  1005.8  0.2  734  271      0.0     
18 23.05.19 тихо ()   10 км  {гроза}  10/0 средняя, верхняя 
[Ac trans|Ci]
+17.2 +13.1 77 +23  1007.1  0.8  734  276    +25  0.0     
21 23.05.19 тихо ()   4000 м  дымка  10/0 верхняя 
[Ci]
+13.1 +12 93 +17  1008.5  735  280           
00 24.05.19 тихо ()   4000 м  дымка  8/0 верхняя 
[Ci]
+11.7 +10.8 94 +14  1008.8  0.1  735  282           
03 24.05.19 090 (В) н/о    н/о 
+13.7 +12.4 92 +19  1009.4  0.8  736  280  +11.4         
06 24.05.19 090 (В) 4000 м  дымка  10/10 300 м 
[St]
+14.3 +12.9 91 +20  1010.4  1.6  737  279  +11.4        сухая 
09 24.05.19 100 (В) 10 км  {дождь}  10/10 300 м 
[Ns]
+16.6 +13.9 84 +24  1010.8  0.7  737  277           
12 24.05.19 110 (В) 10 км  {дождь}  10/10 300 м кучево-дожд. 
[Cb cap]
+17.3 +13 76 +24  1010.6  0.1  737  277           
15 24.05.19 090 (В) 10 км    10/0 средняя 
[As op]
+17 +13.2 78 +23  1010.4  -0.2  737  277      0.0     
18 24.05.19 100 (В) 10 км    10/0 средняя, верхняя 
[Ac trans|Ci fib]
+15.2 +12.5 84 +20  1009.5  -1.1  736  278    +17.6  0.0     
21 24.05.19 100 (В) 10 км    8/0 верхняя 
[Ci fib]
+13.2 +11.6 90 +18  1010  0.3  736  281           
00 25.05.19 110 (В) 10 км    6/0 верхняя 
[Ci fib]
+12.3 +11.3 94 +16  1009.3  -0.8  736  281           
Время (UTC), дата Ветер
(°,м/с) 
Видим.   Явления Облачность Т
(°С)
Тd
(°С)
f(%) Тe
(°С)
Pmin
(гПа)
dP
(гПа)
Po
(мм)
O2
(г/м3)
Тmin Tmax R s Состояние
почвы

Для получения пояснительной информации подведите курсор к названию столбца.

ПОГОДА в Смоленске - архив

Всё, что Вы хотите узнать о погоде в Смоленске - удобно и подробно!

Выберите нужную дату (начиная с 1 января 2018* года) и нажмите кнопку "Найти".
Будут отображены архивные сводки погоды по пункту Смоленск, начиная с указанной даты.


Отображать данные в формате CSV (для использования в таблицах Excel)


Внимание! Наш архив погоды предназначен исключительно для личного некоммерческого использования в познавательных целях. Если Вам необходимы официальные справки о состоянии погоды (для производственных, юридических, коммерческих и т.п. целей), обращайтесь в органы Росгидромета.

*Примечание: данная дата относится к архиву по метеостанциям СССР (Россия, СНГ, Балтия).
Архив по метеостанциям Зарубежной Европы и Азии (кроме Китая) хранится 10 дней, по другим регионам земного шара (Китай, Африка, Америка, Австралия, Океания) - 1 день.

Смоленск - район местоположения метеостанции


Название, широта, долгота, высота метеостанции:
Смоленск 54.8°ш. 32.1°д. 239 м над ур. моря [Российская Федерация]

Дополнительная информация

В oтличие oт бoльшинства пoгoдных сайтoв мы публикуем пoдрoбную метеoинфoрмацию в детальнoм прoфессиoнальнoм фoрмате.

Характеристики температуры и влажнoсти вoздуха измеряются на высoте 2 м в тени вдали oт зданий и деревьев.
Скoрoсть ветра измеряется на высoте 10 м (на урoвне рoста челoвека скoрoсть ветра ниже в 1.5-2 раза). Если метеoстанция нахoдится в гoрoде или в лесу, тo скoрoсть ветра занижена на 2-4 м/с пo сравнению с oткрытым местoм. Скoрoсть ветра над акватoриями крупных рек и oзёр, а также на вершинах хoлмoв на 2-5 м/с выше, чем в oбычных услoвиях.
Атмoсфернoе давление в разных тoчках местнoсти мoжет значительнo oтличаться oт давления на метеoстанции, в зависимoсти oт услoвий рельефа (при пoдъёме на 10 м давление пoнижается примернo на 1 мм рт.ст.).